Weather History for Murray, KY

Change the Weather History Date:

Monday, March 11, 2013

  Actual Average (KPAH) Record (KPAH)
Temperature  
Mean Temperature 43 °F 47 °F  
Max Temperature 51 °F 57 °F 79 °F (2006)
Min Temperature 35 °F 36 °F 16 °F (1998)
Degree Days  
Heating Degree Days 22 18  
Month to date heating degree days 219  
Since 1 July heating degree days 3515  
Cooling Degree Days 0 0  
Month to date cooling degree days 0  
Year to date cooling degree days 0  
Moisture  
Dew Point 36 °F    
Average Humidity 80    
Maximum Humidity 100    
Minimum Humidity 65    
Precipitation  
Precipitation 0.00 in 0.12 in 1.68 in (1943)
Month to date precipitation 1.30  
Year to date precipitation 8.89  
Snow  
Snow 0.00 in 0.10 in 2.00 in (1960)
Month to date snowfall 0.4  
Since 1 July snowfall 8.9  
Snow Depth -    
Sea Level Pressure  
Sea Level Pressure 29.86 in    
Wind  
Wind Speed 10 mph (WSW)    
Max Wind Speed 22 mph    
Max Gust Speed 29 mph    
Visibility 10 miles    
Events      
T = Trace of Precipitation, MM = Missing Value Source: NWS Daily Summary

Daily Weather History Graph

Daily Weather History Graph

Search for Another Location

Airport:

Trip Planner

Search our weather history database for the weather conditions in past years. The results will help you decide how hot, cold, wet, or windy it might be!

Date:

Astronomy

Mar. 11, 2013 Rise Set
Actual Time 7:09 AM CDT 6:57 PM CDT
Civil Twilight 6:44 AM CDT 7:23 PM CDT
Nautical Twilight 6:14 AM CDT 7:53 PM CDT
Astronomical Twilight 5:44 AM CDT 8:23 PM CDT
Moon 6:44 AM CDT (3/11) 7:07 PM CDT (3/11)
Length of Visible Light 12h 39m
Length of Day
11h 47m
Waning Crescent, 0% of the Moon is Illuminated
Mar 11
Waning Crescent
Mar 11
New
Mar 19
First Quarter
Mar 27
Full
Apr 2
Last Quarter

Hourly Weather History & Observations

Time (CDT) Temp. Windchill Dew Point Humidity Pressure Visibility Wind Dir Wind Speed Gust Speed Precip Events Conditions
12:35 AM 51.8 °F - 50.0 °F 94% 29.79 in 10.0 mi SW 6.9 mph 17.3 mph N/A   Overcast
12:55 AM 51.8 °F - 50.0 °F 94% 29.81 in 10.0 mi SSW 6.9 mph - N/A   Overcast
1:15 AM 51.8 °F - 50.0 °F 94% 29.80 in 10.0 mi SW 6.9 mph - N/A   Overcast
1:35 AM 51.8 °F - 50.0 °F 94% 29.78 in 10.0 mi SSW 5.8 mph 16.1 mph N/A   Overcast
2:15 AM 51.8 °F - 50.0 °F 94% 29.79 in 10.0 mi SW 10.4 mph 16.1 mph N/A   Overcast
2:35 AM 50.0 °F - 50.0 °F 100% 29.76 in 10.0 mi SW 9.2 mph - N/A   Overcast
2:55 AM 48.2 °F - 44.6 °F 87% 29.78 in 10.0 mi West 12.7 mph 21.9 mph N/A   Overcast
3:15 AM 48.2 °F - 44.6 °F 87% 29.77 in 10.0 mi West 8.1 mph - N/A   Overcast
3:35 AM 46.4 °F 43.5 °F 41.0 °F 81% 29.76 in 10.0 mi WSW 5.8 mph - N/A   Overcast
3:55 AM 46.4 °F 42.9 °F 41.0 °F 81% 29.78 in 10.0 mi WSW 6.9 mph - N/A   Overcast
4:15 AM 46.4 °F 41.9 °F 42.8 °F 87% 29.80 in 10.0 mi WSW 9.2 mph - N/A   Overcast
4:35 AM 46.4 °F 41.5 °F 41.0 °F 81% 29.79 in 10.0 mi WSW 10.4 mph - N/A   Overcast
4:55 AM 44.6 °F 40.2 °F 41.0 °F 87% 29.78 in 10.0 mi SW 8.1 mph - N/A   Mostly Cloudy
5:15 AM 44.6 °F 39.2 °F 41.0 °F 87% 29.78 in 10.0 mi WSW 10.4 mph - N/A   Mostly Cloudy
5:35 AM 42.8 °F 37.5 °F 39.2 °F 87% 29.78 in 10.0 mi WSW 9.2 mph - N/A   Overcast
5:55 AM 44.6 °F 40.2 °F 39.2 °F 81% 29.78 in 10.0 mi SW 8.1 mph - N/A   Overcast
6:15 AM 44.6 °F 40.2 °F 39.2 °F 81% 29.80 in 10.0 mi SW 8.1 mph - N/A   Overcast
6:35 AM 44.6 °F 40.7 °F 39.2 °F 81% 29.79 in 10.0 mi SW 6.9 mph - N/A   Overcast
6:55 AM 42.8 °F 38.0 °F 39.2 °F 87% 29.79 in 10.0 mi WSW 8.1 mph - N/A   Overcast
7:15 AM 42.8 °F 38.6 °F 39.2 °F 87% 29.80 in 10.0 mi SW 6.9 mph - N/A   Overcast
7:35 AM 41.0 °F 32.8 °F 37.4 °F 87% 29.80 in 10.0 mi West 16.1 mph 21.9 mph N/A   Overcast
7:55 AM 41.0 °F 32.8 °F 37.4 °F 87% 29.80 in 10.0 mi West 16.1 mph - N/A   Overcast
8:15 AM 41.0 °F 32.8 °F 37.4 °F 87% 29.80 in 10.0 mi WSW 16.1 mph 21.9 mph N/A   Overcast
8:35 AM 41.0 °F 33.9 °F 35.6 °F 81% 29.81 in 10.0 mi West 12.7 mph - N/A   Overcast
8:55 AM 41.0 °F 33.1 °F 35.6 °F 81% 29.82 in 10.0 mi West 15.0 mph 20.7 mph N/A   Overcast
9:15 AM 39.2 °F 32.5 °F 37.4 °F 93% 29.83 in 4.0 mi West 10.4 mph - N/A   Overcast
9:35 AM 39.2 °F 31.6 °F 35.6 °F 87% 29.83 in 10.0 mi West 12.7 mph - N/A   Overcast
9:55 AM 39.2 °F 30.8 °F 35.6 °F 87% 29.82 in 10.0 mi West 15.0 mph 23.0 mph N/A   Overcast
10:15 AM 37.4 °F 28.5 °F 35.6 °F 93% 29.85 in 5.0 mi West 15.0 mph 19.6 mph N/A   Overcast
10:35 AM 39.2 °F 30.8 °F 35.6 °F 87% 29.84 in 5.0 mi West 15.0 mph 21.9 mph N/A   Overcast
10:55 AM 39.2 °F 30.5 °F 35.6 °F 87% 29.85 in 10.0 mi WSW 16.1 mph 23.0 mph N/A   Overcast
11:15 AM 39.2 °F 31.6 °F 33.8 °F 81% 29.85 in 10.0 mi West 12.7 mph 19.6 mph N/A   Overcast
11:35 AM 39.2 °F 30.2 °F 33.8 °F 81% 29.85 in 10.0 mi West 17.3 mph 23.0 mph N/A   Overcast
11:55 AM 41.0 °F 33.1 °F 32.0 °F 70% 29.84 in 10.0 mi West 15.0 mph 25.3 mph N/A   Overcast
12:15 PM 42.8 °F 34.5 °F 33.8 °F 70% 29.84 in 10.0 mi WSW 18.4 mph 24.2 mph N/A   Mostly Cloudy
12:35 PM 41.0 °F 32.8 °F 32.0 °F 70% 29.85 in 10.0 mi WSW 16.1 mph 28.8 mph N/A   Mostly Cloudy
12:55 PM 41.0 °F 32.2 °F 32.0 °F 70% 29.85 in 10.0 mi West 18.4 mph 27.6 mph N/A   Overcast
1:15 PM 41.0 °F 31.4 °F 32.0 °F 70% 29.86 in 10.0 mi West 21.9 mph 27.6 mph N/A   Overcast
1:35 PM 39.2 °F 30.5 °F 32.0 °F 75% 29.85 in 10.0 mi West 16.1 mph 21.9 mph N/A   Overcast
1:55 PM 39.2 °F 30.2 °F 32.0 °F 75% 29.85 in 10.0 mi WSW 17.3 mph 24.2 mph N/A   Overcast
2:15 PM 39.2 °F 30.2 °F 32.0 °F 75% 29.85 in 10.0 mi West 17.3 mph - N/A   Overcast
2:35 PM 39.2 °F 29.8 °F 32.0 °F 75% 29.85 in 10.0 mi West 18.4 mph 24.2 mph N/A   Overcast
2:55 PM 39.2 °F 30.5 °F 32.0 °F 75% 29.85 in 10.0 mi West 16.1 mph 26.5 mph N/A   Overcast
3:15 PM 39.2 °F 29.8 °F 32.0 °F 75% 29.86 in 10.0 mi West 18.4 mph 24.2 mph N/A   Overcast
3:35 PM 39.2 °F 30.5 °F 32.0 °F 75% 29.86 in 10.0 mi West 16.1 mph 20.7 mph N/A   Overcast
3:55 PM 39.2 °F 30.5 °F 32.0 °F 75% 29.87 in 10.0 mi West 16.1 mph - N/A   Overcast
4:15 PM 39.2 °F 29.8 °F 30.2 °F 70% 29.87 in 10.0 mi West 18.4 mph 23.0 mph N/A   Overcast
4:35 PM 41.0 °F 33.9 °F 30.2 °F 65% 29.88 in 10.0 mi West 12.7 mph - N/A   Overcast
4:55 PM 39.2 °F 30.8 °F 30.2 °F 70% 29.88 in 10.0 mi West 15.0 mph - N/A   Overcast
5:15 PM 39.2 °F 31.2 °F 30.2 °F 70% 29.89 in 10.0 mi West 13.8 mph 21.9 mph N/A   Overcast
5:35 PM 39.2 °F 31.2 °F 28.4 °F 65% 29.90 in 10.0 mi West 13.8 mph 19.6 mph N/A   Overcast
6:15 PM 39.2 °F 32.0 °F 30.2 °F 70% 29.92 in 10.0 mi West 11.5 mph - N/A   Overcast
6:35 PM 39.2 °F 32.0 °F 30.2 °F 70% 29.93 in 10.0 mi West 11.5 mph - N/A   Overcast
6:55 PM 37.4 °F 30.3 °F 30.2 °F 75% 29.93 in 10.0 mi WSW 10.4 mph - N/A   Overcast
7:15 PM 37.4 °F 32.1 °F 32.0 °F 81% 29.94 in 10.0 mi West 6.9 mph - N/A   Overcast
7:35 PM 37.4 °F 31.4 °F 32.0 °F 81% 29.95 in 10.0 mi West 8.1 mph - N/A   Overcast
7:55 PM 39.2 °F 32.5 °F 30.2 °F 70% 29.96 in 10.0 mi West 10.4 mph 16.1 mph N/A   Overcast
8:15 PM 37.4 °F 30.8 °F 32.0 °F 81% 29.96 in 10.0 mi West 9.2 mph - N/A   Overcast
8:35 PM 39.2 °F 33.6 °F 32.0 °F 75% 29.97 in 10.0 mi West 8.1 mph - N/A   Overcast
8:55 PM 39.2 °F 35.0 °F 32.0 °F 75% 29.97 in 10.0 mi West 5.8 mph - N/A   Overcast
9:15 PM 39.2 °F 35.0 °F 32.0 °F 75% 29.98 in 10.0 mi WNW 5.8 mph - N/A   Overcast
9:35 PM 37.4 °F 32.8 °F 32.0 °F 81% 29.98 in 10.0 mi West 5.8 mph - N/A   Overcast
9:55 PM 37.4 °F 32.1 °F 32.0 °F 81% 29.99 in 10.0 mi WNW 6.9 mph - N/A   Overcast
10:15 PM 37.4 °F 32.1 °F 32.0 °F 81% 30.00 in 10.0 mi WNW 6.9 mph - N/A   Overcast
10:35 PM 37.4 °F 30.8 °F 32.0 °F 81% 30.00 in 10.0 mi NW 9.2 mph - N/A   Overcast
10:55 PM 37.4 °F 30.8 °F 30.2 °F 75% 30.00 in 10.0 mi WNW 9.2 mph - N/A   Overcast
11:15 PM 35.6 °F 29.2 °F 28.4 °F 75% 30.00 in 10.0 mi WNW 8.1 mph - N/A   Scattered Clouds
11:35 PM 35.6 °F 29.9 °F 28.4 °F 75% 30.01 in 10.0 mi WNW 6.9 mph - N/A   Mostly Cloudy
11:55 PM 35.6 °F 30.7 °F 28.4 °F 75% 30.01 in 10.0 mi West 5.8 mph - N/A   Overcast